STARLINK-33918 (63796 NORAD) Tracking and Keplerian Element Data

This shows tracking and keplerian element data for the satellite.

Feedback or suggestion? Click here.




ElementValue
Catalog63796
NameSTARLINK-33918
Epoch Orbit3678
Epoch Day354.13804163
Epoch Year2025
RAAN141.9831
Inclination43.0007
Eccentricity0.0001364
Argument of Perigee271.6417
Mean Anonmoly88.4279
Mean Motion15.2758812
Decay Rate0.00013601
L11 63796U 25091X 25354.13804163 .00013601 00000+0 50272-3 0 9992
L22 63796 43.0007 141.9831 0001364 271.6417 88.4279 15.27588120 36787



Live tracking and technical data element details for STARLINK-33918 (NORAD 63796). STARLINK-33918 can be tracked NOW for your location showing map with azimuth and elevation plus other details from your city location.







IsCatalogInMostPopularTable: catalog: 63796, numindb: 2
Update: records affected: 1



GetName: 63796 STARLINK-33918

Hit Count: updated at: Sat, 07 Feb 2026 07:57:41 GMT